Location: Carthage
(33.8834°N, 106.6595°W)
Time: 12:17:50
(UTC+00:00)

Cosmos 2278 - Visible Passes

Search period start: 18 May 2026 00:00
Search period end: 28 May 2026 00:00
Orbit: 836 x 852 km, 71.1° (Epoch: 18 May)

Date Brightness Start Highest point End Pass type
(mag) Time Alt. Az. Time Alt. Az. Time Alt. Az.
18 May 4.9 03:25:37 10° N 03:30:28 28° ENE 03:32:43 22° E visible
18 May 4.8 05:09:27 10° NW 05:14:32 34° WSW 05:14:35 34° WSW visible
19 May 4.9 03:11:24 10° N 03:16:12 27° ENE 03:19:04 18° ESE visible
19 May 4.7 04:55:09 10° NW 05:00:17 36° WSW 05:00:57 34° WSW visible
20 May 4.9 02:57:12 10° N 03:01:55 26° ENE 03:05:28 15° ESE visible
20 May 4.7 04:40:51 10° NW 04:46:02 37° WSW 04:47:21 33° SW visible
21 May 5.0 02:43:00 10° N 02:47:38 25° ENE 02:51:55 11° ESE visible
21 May 4.7 04:26:33 10° NW 04:31:47 39° WSW 04:33:48 29° SW visible
22 May 5.0 02:28:48 10° N 02:33:21 24° ENE 02:37:52 10° ESE visible
22 May 4.7 04:12:15 10° NW 04:17:33 41° WSW 04:20:18 25° SSW visible
23 May 4.6 03:57:58 10° NW 04:03:18 42° WSW 04:06:51 20° SSW visible
24 May 4.6 03:43:40 10° NW 03:49:03 44° WSW 03:53:28 15° S visible
25 May 4.6 03:29:23 10° NNW 03:34:48 46° WSW 03:40:07 10° S visible
26 May 4.5 03:15:06 10° NNW 03:20:33 48° WSW 03:25:58 10° S visible
27 May 4.5 03:00:49 10° NNW 03:06:19 51° WSW 03:11:46 10° S visible
